Location: Table Mountain
(47.2500°N, 120.5778°W)
Time: 18:49:04
(UTC-07:00)

Vanguard 2 - Visible Passes

Search period start: 16 October 2017 00:00
Search period end: 26 October 2017 00:00
Orbit: 554 x 2939 km, 32.9° (Epoch: 16 October)

Date Brightness Start Highest point End Pass type
(mag) Time Alt. Az. Time Alt. Az. Time Alt. Az.
21 Oct 12.0 06:06:31 10° SSE 06:13:02 13° SE 06:18:53 10° ESE visible
22 Oct 11.9 06:20:56 10° S 06:30:50 19° SSE 06:39:13 10° ESE visible
23 Oct 11.7 06:36:41 10° SSW 06:48:39 24° SSE 06:58:25 10° ESE visible
24 Oct 12.0 04:50:58 10° SSE 04:56:48 12° SE 05:02:19 10° ESE visible
24 Oct 11.6 06:53:06 10° SSW 07:06:31 29° SSE 07:17:07 10° ESE visible
25 Oct 11.9 05:04:37 10° S 05:14:27 18° SE 05:23:23 10° ESE visible
